545  
ASUS43 KLMK 302310  
RWRKY  
KENTUCKY REGIONAL WEATHER ROUNDUP  
NATIONAL WEATHER SERVICE LOUISVILLE KY  
700 PM EDT WED JUL 30 2014  
 
NOTE "FAIR" INDICATES FEW OR NO CLOUDS BELOW 12,000 FEET  
WITH NO SIGNIFICANT WEATHER AND/OR S TO VISIBILITY
.  
 
KYZ001>023-026-027-061>063-070>075-310000-  
WESTERN AND SOUTH CENTRAL KENTUCKY  
 
CITY SKY/WX TMP DP RH WIND PRES REMARKS
 
PADUCAH CLOUDY 79 61 53 W3 30.07F  
HENDERSON PTSUNNY 79 61 53 SW5 30.05S  
OWENSBORO PTSUNNY 78 62 57 W7 30.06F  
HOPKINSVILLE PTSUNNY 80 52 38 W8 30.07F  
BOWLING GREEN SUNNY 80 54 40 NW6 30.06S  
GLASGOW PTSUNNY 79 52 37 W3 30.06S  

 
 
KYZ024-025-028>034-038-045-046-053-310000-  
NORTH CENTRAL KENTUCKY  
 
CITY SKY/WX TMP DP RH WIND PRES REMARKS
 
LOUISVILLE/SDF MOSUNNY 80 56 43 W10 30.04S  
LOUISVILLE/LOU SUNNY 80 55 42 W9G16 30.04F  
FORT KNOX MOSUNNY 77 60 55 W8 30.05S  

 
 
KYZ035>037-039>044-047>052-055>060-089>105-310000-  
NORTHEAST KENTUCKY  
 
CITY SKY/WX TMP DP RH WIND PRES REMARKS
 
LEXINGTON SUNNY 78 54 43 W9 30.06F  
COVINGTON MOSUNNY 77 58 51 W14 30.04S  
FRANKFORT SUNNY 78 58 49 W6 30.05S  

 
 
KYZ054-064>069-076>088-106>120-310000-  
SOUTHEAST KENTUCKY  
 
CITY SKY/WX TMP DP RH WIND PRES REMARKS
 
JACKSON MOSUNNY 75 59 57 CALM 30.08S  
LONDON MOSUNNY 78 56 46 W8 30.09S  
SOMERSET MOSUNNY 77 55 47 W3 30.09S  
MIDDLESBORO MOSUNNY 76 58 54 CALM 30.09S  
MONTICELLO MOCLDY 77 62 59 CALM 30.10S  

 
 
CLICK HERE TO GO TO PREVIOUS BULLETINS.

The Nexlab KY Page Main Text Page